,,,PA_Meas_PMT16A,,PR_Meas_QMR101_102,,RH_Meas_QMH101,,SR_Meas_QMS101,,TA_Meas_QMH101,,GenWind,,GenWind,
date,time,status,PA,status,PR,status,RH,status,SR,status,TA,status,DirAvg,status,SpdAvg,
2009-04-30, 00:00:05,VALID,1000.83,VALID,0,VALID,90.4415,VALID,0,VALID,24.3062,VALID,41,VALID,0.423828,
2009-04-30, 00:01:05,VALID,1000.82,VALID,0,VALID,90.4415,VALID,0,VALID,24.347,VALID,89,VALID,0.551953,
2009-04-30, 00:02:05,VALID,1000.81,VALID,0,VALID,90.35,VALID,0,VALID,24.3666,VALID,90,VALID,0.721875,
2009-04-30, 00:03:05,VALID,1000.79,VALID,0,VALID,90.2508,VALID,0,VALID,24.4056,VALID,91,VALID,0.806641,
2009-04-30, 00:04:05,VALID,1000.74,VALID,0,VALID,90.0982,VALID,0,VALID,24.4251,VALID,92,VALID,0.992188,
2009-04-30, 00:05:05,VALID,1000.75,VALID,0,VALID,89.8388,VALID,0,VALID,24.4642,VALID,93,VALID,0.820313,
2009-04-30, 00:06:05,VALID,1000.72,VALID,0,VALID,89.8846,VALID,0,VALID,24.4446,VALID,94,VALID,0.923047,
2009-04-30, 00:07:05,VALID,1000.69,VALID,0,VALID,89.9303,VALID,0,VALID,24.4251,VALID,94,VALID,0.709766,
2009-04-30, 00:08:05,VALID,1000.7,VALID,0,VALID,89.9685,VALID,0,VALID,24.4251,VALID,91,VALID,0.745703,
2009-04-30, 00:09:05,VALID,1000.69,VALID,0,VALID,89.9074,VALID,0,VALID,24.4056,VALID,91,VALID,0.614062,
2009-04-30, 00:10:05,VALID,1000.67,VALID,0,VALID,89.9685,VALID,0,VALID,24.3861,VALID,88,VALID,0.780469,
2009-04-30, 00:11:05,VALID,1000.65,VALID,0,VALID,89.8769,VALID,0,VALID,24.3647,VALID,82,VALID,0.608203,
2009-04-30, 00:12:05,VALID,1000.6,VALID,0,VALID,90.1363,VALID,0,VALID,24.3275,VALID,94,VALID,0.527344,
2009-04-30, 00:13:05,VALID,1000.6,VALID,0,VALID,90.2584,VALID,0,VALID,24.308,VALID,103,VALID,0.767969,
2009-04-30, 00:14:05,VALID,1000.56,VALID,0,VALID,90.1974,VALID,0,VALID,24.308,VALID,110,VALID,0.792969,
2009-04-30, 00:15:05,VALID,1000.55,VALID,0,VALID,90.2203,VALID,0,VALID,24.2885,VALID,117,VALID,0.885547,
2009-04-30, 00:16:05,VALID,1000.53,VALID,0,VALID,90.2126,VALID,0,VALID,24.2885,VALID,135,VALID,0.871484,
2009-04-30, 00:17:05,VALID,1000.52,VALID,0,VALID,90.2813,VALID,0,VALID,24.308,VALID,129,VALID,0.963281,
2009-04-30, 00:18:05,VALID,1000.51,VALID,0,VALID,90.205,VALID,0,VALID,24.3275,VALID,132,VALID,1.15352,
2009-04-30, 00:19:05,VALID,1000.53,VALID,0,VALID,89.9456,VALID,0,VALID,24.3666,VALID,128,VALID,1.0668,
2009-04-30, 00:20:05,VALID,1000.52,VALID,0,VALID,89.8159,VALID,0,VALID,24.3861,VALID,140,VALID,0.663672,
2009-04-30, 00:21:05,VALID,1000.53,VALID,0,VALID,89.8235,VALID,0,VALID,24.4251,VALID,141,VALID,0.635156,
2009-04-30, 00:22:05,VALID,1000.53,VALID,0,VALID,89.5412,VALID,0,VALID,24.4251,VALID,143,VALID,0.971094,
2009-04-30, 00:23:05,VALID,1000.51,VALID,0,VALID,88.9614,VALID,0,VALID,24.4446,VALID,160,VALID,0.779297,
2009-04-30, 00:24:05,VALID,1000.52,VALID,0,VALID,88.4197,VALID,0,VALID,24.4623,VALID,158,VALID,0.936328,
2009-04-30, 00:25:05,VALID,1000.52,VALID,0,VALID,88.2747,VALID,0,VALID,24.5227,VALID,149,VALID,0.964453,
2009-04-30, 00:26:05,VALID,1000.5,VALID,0,VALID,88.0382,VALID,0,VALID,24.5618,VALID,159,VALID,1.27305,
2009-04-30, 00:27:05,VALID,1000.52,VALID,0,VALID,88.0534,VALID,0,VALID,24.5599,VALID,156,VALID,0.937109,
2009-04-30, 00:28:05,VALID,1000.52,VALID,0,VALID,88.0458,VALID,0,VALID,24.6008,VALID,153,VALID,1.01602,
2009-04-30, 00:29:05,VALID,1000.53,VALID,0,VALID,87.9924,VALID,0,VALID,24.5794,VALID,153,VALID,1.00664,
2009-04-30, 00:30:05,VALID,1000.56,VALID,0,VALID,88.0916,VALID,0,VALID,24.6008,VALID,151,VALID,0.63125,
2009-04-30, 00:31:05,VALID,1000.56,VALID,0,VALID,88.1603,VALID,0,VALID,24.5599,VALID,146,VALID,0.618359,
2009-04-30, 00:32:05,VALID,1000.56,VALID,0,VALID,88.0916,VALID,0,VALID,24.5599,VALID,142,VALID,0.613672,
2009-04-30, 00:33:05,VALID,1000.57,VALID,0,VALID,88.1603,VALID,0,VALID,24.5209,VALID,140,VALID,0.414844,
2009-04-30, 00:34:05,VALID,1000.58,VALID,0,VALID,88.1145,VALID,0,VALID,24.5227,VALID,128,VALID,0.588281,
2009-04-30, 00:35:05,VALID,1000.58,VALID,0,VALID,88.0382,VALID,0,VALID,24.5227,VALID,114,VALID,0.613281,
2009-04-30, 00:36:05,VALID,1000.61,VALID,0,VALID,88.0687,VALID,0,VALID,24.4818,VALID,109,VALID,0.441797,
2009-04-30, 00:37:05,VALID,1000.62,VALID,0,VALID,88.1908,VALID,0,VALID,24.4428,VALID,109,VALID,0.410547,
2009-04-30, 00:38:05,VALID,1000.63,VALID,0,VALID,88.3663,VALID,0,VALID,24.4233,VALID,108,VALID,0.460547,
2009-04-30, 00:39:04,VALID,1000.6,VALID,0,VALID,88.3892,VALID,0,VALID,24.4037,VALID,108,VALID,0.290234,
2009-04-30, 00:40:04,VALID,1000.6,VALID,0,VALID,88.4654,VALID,0,VALID,24.3842,VALID,106,VALID,0.271875,
2009-04-30, 00:41:04,VALID,1000.64,VALID,0,VALID,88.5341,VALID,0,VALID,24.3666,VALID,106,VALID,0.260547,
2009-04-30, 00:42:04,VALID,1000.62,VALID,0,VALID,88.7783,VALID,0,VALID,24.3452,VALID,106,VALID,0.303516,
2009-04-30, 00:43:04,VALID,1000.61,VALID,0,VALID,88.6791,VALID,0,VALID,24.3062,VALID,102,VALID,0.613672,
2009-04-30, 00:44:04,VALID,1000.61,VALID,0,VALID,88.6791,VALID,0,VALID,24.3275,VALID,96,VALID,0.530078,
2009-04-30, 00:45:04,VALID,1000.58,VALID,0,VALID,88.7859,VALID,0,VALID,24.3275,VALID,96,VALID,0.344922,
2009-04-30, 00:46:04,VALID,1000.55,VALID,0,VALID,88.9003,VALID,0,VALID,24.3275,VALID,96,VALID,0.481641,
2009-04-30, 00:47:04,VALID,1000.51,VALID,0,VALID,88.9232,VALID,0,VALID,24.3275,VALID,97,VALID,0.541016,
2009-04-30, 00:48:04,VALID,1000.49,VALID,0,VALID,88.7554,VALID,0,VALID,24.3062,VALID,97,VALID,0.761719,
2009-04-30, 00:49:04,VALID,1000.46,VALID,0,VALID,88.8317,VALID,0,VALID,24.3062,VALID,96,VALID,0.587891,
2009-04-30, 00:50:04,VALID,1000.45,VALID,0,VALID,88.4349,VALID,0,VALID,24.3062,VALID,94,VALID,0.617969,
2009-04-30, 00:51:04,VALID,1000.45,VALID,0,VALID,88.2976,VALID,0,VALID,24.3452,VALID,66,VALID,0.703125,
2009-04-30, 00:52:04,VALID,1000.45,VALID,0,VALID,88.351,VALID,0,VALID,24.3452,VALID,66,VALID,0.776172,
2009-04-30, 00:53:04,VALID,1000.47,VALID,0,VALID,88.702,VALID,0,VALID,24.3666,VALID,65,VALID,0.764844,
2009-04-30, 00:54:04,VALID,1000.47,VALID,0,VALID,89.381,VALID,0,VALID,24.3452,VALID,65,VALID,0.628516,
2009-04-30, 00:55:04,VALID,1000.47,VALID,0,VALID,89.5641,VALID,0,VALID,24.3257,VALID,55,VALID,0.81875,
2009-04-30, 00:56:04,VALID,1000.48,VALID,0,VALID,89.7777,VALID,0,VALID,24.2866,VALID,54,VALID,0.839844,
2009-04-30, 00:57:04,VALID,1000.47,VALID,0,VALID,90.0753,VALID,0,VALID,24.269,VALID,54,VALID,0.739453,
2009-04-30, 00:58:04,VALID,1000.45,VALID,0,VALID,90.4568,VALID,0,VALID,24.2086,VALID,54,VALID,0.626953,
2009-04-30, 00:59:04,VALID,1000.46,VALID,0,VALID,90.5712,VALID,0,VALID,24.1696,VALID,54,VALID,0.532812,
2009-04-30, 01:00:04,VALID,1000.47,VALID,0,VALID,90.7543,VALID,0,VALID,24.1305,VALID,54,VALID,0.553125,
2009-04-30, 01:01:04,VALID,1000.45,VALID,0,VALID,90.968,VALID,0,VALID,24.111,VALID,54,VALID,0.424219,
2009-04-30, 01:02:04,VALID,1000.47,VALID,0,VALID,91.1511,VALID,0,VALID,24.0525,VALID,54,VALID,0.442969,
2009-04-30, 01:03:04,VALID,1000.43,VALID,0,VALID,91.4257,VALID,0,VALID,24.0329,VALID,54,VALID,0.517578,
2009-04-30, 01:04:04,VALID,1000.43,VALID,0,VALID,91.7614,VALID,0,VALID,24.0329,VALID,44,VALID,0.617578,
2009-04-30, 01:05:04,VALID,1000.41,VALID,0,VALID,91.9369,VALID,0,VALID,24.0543,VALID,23,VALID,0.748828,
2009-04-30, 01:06:04,VALID,1000.45,VALID,0,VALID,91.6394,VALID,0,VALID,24.0134,VALID,10,VALID,0.661328,
2009-04-30, 01:07:04,VALID,1000.42,VALID,0,VALID,91.5249,VALID,0,VALID,24.0329,VALID,10,VALID,0.387109,
2009-04-30, 01:08:04,VALID,1000.41,VALID,0,VALID,91.4868,VALID,0,VALID,24.0525,VALID,10,VALID,0.340234,
2009-04-30, 01:09:04,VALID,1000.38,VALID,0,VALID,91.3418,VALID,0,VALID,24.0543,VALID,10,VALID,0.517969,
2009-04-30, 01:10:04,VALID,1000.36,VALID,0,VALID,91.441,VALID,0,VALID,24.0543,VALID,10,VALID,0.550391,
2009-04-30, 01:11:04,VALID,1000.3,VALID,0,VALID,91.1511,VALID,0,VALID,23.9939,VALID,11,VALID,0.552344,
2009-04-30, 01:12:04,VALID,1000.26,VALID,0,VALID,90.9451,VALID,0,VALID,23.9744,VALID,88,VALID,0.707031,
2009-04-30, 01:13:04,VALID,1000.18,VALID,0,VALID,90.9832,VALID,0,VALID,23.9762,VALID,88,VALID,0.713672,
2009-04-30, 01:14:04,VALID,1000.13,VALID,0,VALID,91.029,VALID,0,VALID,23.9744,VALID,91,VALID,0.768359,
2009-04-30, 01:15:04,VALID,1000.1,VALID,0,VALID,90.884,VALID,0,VALID,23.9549,VALID,90,VALID,0.815234,
2009-04-30, 01:16:04,VALID,1000.07,VALID,0,VALID,90.8077,VALID,0,VALID,23.9957,VALID,83,VALID,0.865234,
2009-04-30, 01:17:04,VALID,1000.04,VALID,0,VALID,91.0977,VALID,0,VALID,23.9939,VALID,51,VALID,1.06992,
2009-04-30, 01:18:04,VALID,1000.1,VALID,0,VALID,91.1663,VALID,0,VALID,23.9939,VALID,39,VALID,1.19805,
2009-04-30, 01:19:04,VALID,1000.11,VALID,0,VALID,91.5249,VALID,0,VALID,23.9762,VALID,36,VALID,1.10234,
2009-04-30, 01:20:04,VALID,1000.13,VALID,0,VALID,91.7309,VALID,0,VALID,23.8963,VALID,36,VALID,0.936328,
2009-04-30, 01:21:04,VALID,1000.13,VALID,0,VALID,91.853,VALID,0,VALID,23.8786,VALID,36,VALID,0.861719,
2009-04-30, 01:22:04,VALID,1000.1,VALID,0,VALID,92.0514,VALID,0,VALID,23.8396,VALID,36,VALID,0.881641,
2009-04-30, 01:23:04,VALID,1000.05,VALID,0,VALID,92.2116,VALID,0,VALID,23.7988,VALID,45,VALID,0.719531,
2009-04-30, 01:24:04,VALID,1000.05,VALID,0,VALID,92.3031,VALID,0,VALID,23.8006,VALID,51,VALID,0.494141,
2009-04-30, 01:25:04,VALID,1000.04,VALID,0,VALID,92.4252,VALID,0,VALID,23.7597,VALID,59,VALID,0.544531,
2009-04-30, 01:26:04,VALID,1000.01,VALID,0,VALID,92.532,VALID,0,VALID,23.7616,VALID,59,VALID,0.492188,
2009-04-30, 01:27:04,VALID,1000.02,VALID,0,VALID,92.5473,VALID,0,VALID,23.7207,VALID,59,VALID,0.367578,
2009-04-30, 01:28:04,VALID,1000.01,VALID,0,VALID,92.5931,VALID,0,VALID,23.7207,VALID,59,VALID,0.3375,
2009-04-30, 01:29:04,VALID,1000.02,VALID,0,VALID,92.7304,VALID,0,VALID,23.7012,VALID,59,VALID,0.311328,
2009-04-30, 01:30:04,VALID,999.992,VALID,0,VALID,92.9059,VALID,0,VALID,23.742,VALID,59,VALID,0.412109,
2009-04-30, 01:31:04,VALID,999.97,VALID,0,VALID,92.8983,VALID,0,VALID,23.7402,VALID,57,VALID,0.575,
2009-04-30, 01:32:04,VALID,999.957,VALID,0,VALID,92.8448,VALID,0,VALID,23.7207,VALID,46,VALID,0.619531,
2009-04-30, 01:33:04,VALID,999.942,VALID,0,VALID,92.738,VALID,0,VALID,23.7012,VALID,44,VALID,0.819141,
2009-04-30, 01:34:04,VALID,999.914,VALID,0,VALID,92.6236,VALID,0,VALID,23.7012,VALID,44,VALID,0.776172,
2009-04-30, 01:35:04,VALID,999.914,VALID,0,VALID,92.5854,VALID,0,VALID,23.6622,VALID,44,VALID,0.732813,
2009-04-30, 01:36:04,VALID,999.934,VALID,0,VALID,92.616,VALID,0,VALID,23.6232,VALID,44,VALID,0.5875,
2009-04-30, 01:37:04,VALID,999.898,VALID,0,VALID,92.7228,VALID,0,VALID,23.6054,VALID,44,VALID,0.576172,
2009-04-30, 01:38:04,VALID,999.915,VALID,0,VALID,92.8296,VALID,0,VALID,23.5646,VALID,44,VALID,0.565625,
2009-04-30, 01:39:04,VALID,999.923,VALID,0,VALID,93.0051,VALID,0,VALID,23.5451,VALID,44,VALID,0.523438,
2009-04-30, 01:40:04,VALID,999.934,VALID,0,VALID,93.2034,VALID,0,VALID,23.5664,VALID,44,VALID,0.416797,
2009-04-30, 01:41:04,VALID,999.915,VALID,0,VALID,93.3179,VALID,0,VALID,23.5859,VALID,44,VALID,0.408203,
2009-04-30, 01:42:04,VALID,999.933,VALID,0,VALID,93.3866,VALID,0,VALID,23.6054,VALID,44,VALID,0.456641,
2009-04-30, 01:43:04,VALID,999.955,VALID,0,VALID,93.501,VALID,0,VALID,23.625,VALID,44,VALID,0.467578,
2009-04-30, 01:44:04,VALID,999.945,VALID,0,VALID,93.5163,VALID,0,VALID,23.6445,VALID,44,VALID,0.320313,
2009-04-30, 01:45:04,VALID,999.944,VALID,0,VALID,93.4247,VALID,0,VALID,23.664,VALID,44,VALID,0.462891,
2009-04-30, 01:46:04,VALID,999.938,VALID,0,VALID,93.4552,VALID,0,VALID,23.6622,VALID,44,VALID,0.346094,
2009-04-30, 01:47:04,VALID,999.906,VALID,0,VALID,93.2416,VALID,0,VALID,23.664,VALID,44,VALID,0.285547,
2009-04-30, 01:48:04,VALID,999.866,VALID,0,VALID,93.3255,VALID,0,VALID,23.6427,VALID,117,VALID,0.779688,
2009-04-30, 01:49:04,VALID,999.837,VALID,0,VALID,93.2797,VALID,0,VALID,23.6622,VALID,121,VALID,0.804688,
2009-04-30, 01:50:04,VALID,999.81,VALID,0,VALID,93.1729,VALID,0,VALID,23.7012,VALID,125,VALID,0.980469,
2009-04-30, 01:51:04,VALID,999.803,VALID,0,VALID,93.0585,VALID,0,VALID,23.742,VALID,125,VALID,0.860156,
2009-04-30, 01:52:04,VALID,999.782,VALID,0,VALID,92.8601,VALID,0,VALID,23.7402,VALID,136,VALID,1.0125,
2009-04-30, 01:53:04,VALID,999.739,VALID,0,VALID,92.6007,VALID,0,VALID,23.8006,VALID,140,VALID,0.960547,
2009-04-30, 01:54:04,VALID,999.736,VALID,0,VALID,92.4023,VALID,0,VALID,23.7988,VALID,134,VALID,0.839453,
2009-04-30, 01:55:04,VALID,999.753,VALID,0,VALID,92.2192,VALID,0,VALID,23.8591,VALID,126,VALID,0.910156,
2009-04-30, 01:56:04,VALID,999.777,VALID,0,VALID,92.1582,VALID,0,VALID,23.8591,VALID,127,VALID,0.625,
2009-04-30, 01:57:04,VALID,999.763,VALID,0,VALID,92.0971,VALID,0,VALID,23.8786,VALID,127,VALID,0.558984,
2009-04-30, 01:58:04,VALID,999.79,VALID,0,VALID,92.1048,VALID,0,VALID,23.8786,VALID,127,VALID,0.469922,
2009-04-30, 01:59:04,VALID,999.781,VALID,0,VALID,92.2116,VALID,0,VALID,23.8786,VALID,127,VALID,0.183984,
2009-04-30, 02:00:04,VALID,999.766,VALID,0,VALID,92.2116,VALID,0,VALID,23.8573,VALID,127,VALID,0.401953,
2009-04-30, 02:01:04,VALID,999.79,VALID,0,VALID,92.1124,VALID,0,VALID,23.8786,VALID,127,VALID,0.596094,
2009-04-30, 02:02:04,VALID,999.778,VALID,0,VALID,91.9674,VALID,0,VALID,23.8786,VALID,131,VALID,0.488672,
2009-04-30, 02:03:04,VALID,999.737,VALID,0,VALID,91.4868,VALID,0,VALID,23.8982,VALID,150,VALID,0.971875,
2009-04-30, 02:04:04,VALID,999.734,VALID,0,VALID,91.0671,VALID,0,VALID,23.9372,VALID,161,VALID,1.03906,
2009-04-30, 02:05:04,VALID,999.688,VALID,0,VALID,90.6704,VALID,0,VALID,23.9957,VALID,140,VALID,1.13086,
2009-04-30, 02:06:04,VALID,999.667,VALID,0,VALID,90.4873,VALID,0,VALID,23.9957,VALID,140,VALID,1.09609,
2009-04-30, 02:07:04,VALID,999.65,VALID,0,VALID,90.4034,VALID,0,VALID,23.9957,VALID,133,VALID,0.70625,
2009-04-30, 02:08:04,VALID,999.659,VALID,0,VALID,90.3042,VALID,0,VALID,23.9762,VALID,130,VALID,0.741406,
2009-04-30, 02:09:04,VALID,999.669,VALID,0,VALID,90.2431,VALID,0,VALID,23.9762,VALID,128,VALID,0.558594,
2009-04-30, 02:10:04,VALID,999.701,VALID,0,VALID,90.3194,VALID,0,VALID,23.9372,VALID,107,VALID,0.321875,
2009-04-30, 02:11:04,VALID,999.727,VALID,0,VALID,90.4873,VALID,0,VALID,23.9177,VALID,107,VALID,0.450781,
2009-04-30, 02:12:04,VALID,999.679,VALID,0,VALID,90.617,VALID,0,VALID,23.8982,VALID,58,VALID,0.496875,
2009-04-30, 02:13:04,VALID,999.704,VALID,0,VALID,90.205,VALID,0,VALID,23.8591,VALID,58,VALID,0.798437,
2009-04-30, 02:14:04,VALID,999.703,VALID,0,VALID,90.4339,VALID,0,VALID,23.8396,VALID,69,VALID,0.789453,
2009-04-30, 02:15:04,VALID,999.678,VALID,0,VALID,90.8535,VALID,0,VALID,23.8201,VALID,54,VALID,0.904297,
2009-04-30, 02:16:04,VALID,999.656,VALID,0,VALID,90.9832,VALID,0,VALID,23.7597,VALID,51,VALID,0.751172,
2009-04-30, 02:17:04,VALID,999.628,VALID,0,VALID,90.9909,VALID,0,VALID,23.742,VALID,52,VALID,0.581641,
2009-04-30, 02:18:04,VALID,999.631,VALID,0,VALID,91.2655,VALID,0,VALID,23.7012,VALID,53,VALID,0.725,
2009-04-30, 02:19:04,VALID,999.611,VALID,0,VALID,91.1968,VALID,0,VALID,23.703,VALID,59,VALID,0.557031,
2009-04-30, 02:20:04,VALID,999.597,VALID,0,VALID,91.3571,VALID,0,VALID,23.6835,VALID,72,VALID,0.638281,
2009-04-30, 02:21:04,VALID,999.633,VALID,0,VALID,91.2503,VALID,0,VALID,23.6835,VALID,87,VALID,0.984375,
2009-04-30, 02:22:04,VALID,999.609,VALID,0,VALID,91.2426,VALID,0,VALID,23.703,VALID,87,VALID,0.378906,
2009-04-30, 02:23:04,VALID,999.658,VALID,0,VALID,90.8306,VALID,0,VALID,23.6835,VALID,101,VALID,0.746094,
2009-04-30, 02:24:04,VALID,999.66,VALID,0,VALID,90.5941,VALID,0,VALID,23.6835,VALID,101,VALID,0.581641,
2009-04-30, 02:25:04,VALID,999.645,VALID,0,VALID,90.4186,VALID,0,VALID,23.703,VALID,100,VALID,0.290625,
2009-04-30, 02:26:04,VALID,999.659,VALID,0,VALID,90.3805,VALID,0,VALID,23.703,VALID,92,VALID,0.66875,
2009-04-30, 02:27:04,VALID,999.678,VALID,0,VALID,90.2126,VALID,0,VALID,23.703,VALID,94,VALID,0.8875,
2009-04-30, 02:28:04,VALID,999.681,VALID,0,VALID,90.1287,VALID,0,VALID,23.7225,VALID,68,VALID,0.599609,
2009-04-30, 02:29:04,VALID,999.663,VALID,0,VALID,90.0371,VALID,0,VALID,23.742,VALID,47,VALID,0.795703,
2009-04-30, 02:30:04,VALID,999.667,VALID,0,VALID,89.9837,VALID,0,VALID,23.7225,VALID,45,VALID,0.792969,
2009-04-30, 02:31:04,VALID,999.66,VALID,0,VALID,89.999,VALID,0,VALID,23.7225,VALID,47,VALID,0.655469,
2009-04-30, 02:32:04,VALID,999.677,VALID,0,VALID,90.0371,VALID,0,VALID,23.703,VALID,47,VALID,0.448438,
2009-04-30, 02:33:04,VALID,999.667,VALID,0,VALID,90.0829,VALID,0,VALID,23.703,VALID,47,VALID,0.151562,
2009-04-30, 02:34:04,VALID,999.648,VALID,0,VALID,90.2431,VALID,0,VALID,23.664,VALID,47,VALID,0.015625,
2009-04-30, 02:35:04,VALID,999.653,VALID,0,VALID,90.3423,VALID,0,VALID,23.6232,VALID,47,VALID,0.00898437,
2009-04-30, 02:36:04,VALID,999.639,VALID,0,VALID,90.4263,VALID,0,VALID,23.625,VALID,47,VALID,0.15625,
2009-04-30, 02:37:04,VALID,999.649,VALID,0,VALID,90.5331,VALID,0,VALID,23.6054,VALID,47,VALID,0,
2009-04-30, 02:38:04,VALID,999.643,VALID,0,VALID,90.678,VALID,0.112286,VALID,23.5841,VALID,47,VALID,0.003125,
2009-04-30, 02:39:04,VALID,999.621,VALID,0,VALID,90.7772,VALID,0.112286,VALID,23.5841,VALID,47,VALID,0,
2009-04-30, 02:40:04,VALID,999.675,VALID,0,VALID,90.9146,VALID,0.112286,VALID,23.5646,VALID,47,VALID,0,
2009-04-30, 02:41:04,VALID,999.68,VALID,0,VALID,90.8993,VALID,0.112286,VALID,23.5451,VALID,47,VALID,0,
2009-04-30, 02:42:04,VALID,999.677,VALID,0,VALID,91.0443,VALID,0,VALID,23.5256,VALID,47,VALID,0,
2009-04-30, 02:43:04,VALID,999.695,VALID,0,VALID,91.3494,VALID,0,VALID,23.5451,VALID,55,VALID,0.336719,
2009-04-30, 02:44:04,VALID,999.7,VALID,0,VALID,91.1892,VALID,0,VALID,23.5256,VALID,112,VALID,0.455859,
2009-04-30, 02:45:04,VALID,999.69,VALID,0,VALID,91.3952,VALID,0.112286,VALID,23.5256,VALID,143,VALID,0.421094,
2009-04-30, 02:46:04,VALID,999.675,VALID,0,VALID,91.4334,VALID,0.112286,VALID,23.5256,VALID,122,VALID,0.627344,
2009-04-30, 02:47:04,VALID,999.671,VALID,0,VALID,91.1587,VALID,0.112286,VALID,23.5451,VALID,122,VALID,0.321094,
2009-04-30, 02:48:04,VALID,999.671,VALID,0,VALID,91.1053,VALID,0,VALID,23.5841,VALID,121,VALID,0.600391,
2009-04-30, 02:49:04,VALID,999.634,VALID,0,VALID,90.9603,VALID,0.112286,VALID,23.6232,VALID,107,VALID,0.34375,
2009-04-30, 02:50:04,VALID,999.625,VALID,0,VALID,90.8688,VALID,0.112286,VALID,23.6427,VALID,107,VALID,0.501172,
2009-04-30, 02:51:04,VALID,999.63,VALID,0,VALID,90.7391,VALID,0.112286,VALID,23.6622,VALID,127,VALID,0.571094,
2009-04-30, 02:52:04,VALID,999.62,VALID,0,VALID,90.2737,VALID,0.112286,VALID,23.7012,VALID,173,VALID,0.698047,
2009-04-30, 02:53:04,VALID,999.621,VALID,0,VALID,90.144,VALID,0,VALID,23.742,VALID,142,VALID,0.645312,
2009-04-30, 02:54:04,VALID,999.608,VALID,0,VALID,89.9532,VALID,0,VALID,23.7811,VALID,161,VALID,0.689844,
2009-04-30, 02:55:04,VALID,999.644,VALID,0,VALID,89.8235,VALID,0,VALID,23.8006,VALID,152,VALID,0.911328,
2009-04-30, 02:56:04,VALID,999.644,VALID,0,VALID,89.7777,VALID,0,VALID,23.8201,VALID,151,VALID,0.834766,
2009-04-30, 02:57:04,VALID,999.607,VALID,0,VALID,89.6862,VALID,0,VALID,23.8378,VALID,151,VALID,0.872266,
2009-04-30, 02:58:04,VALID,999.613,VALID,0,VALID,89.5794,VALID,0,VALID,23.8591,VALID,128,VALID,0.708984,
2009-04-30, 02:59:04,VALID,999.617,VALID,0,VALID,89.6099,VALID,0,VALID,23.8982,VALID,128,VALID,0.378906,
2009-04-30, 03:00:04,VALID,999.641,VALID,0,VALID,89.5565,VALID,0,VALID,23.8982,VALID,127,VALID,0.584766,
2009-04-30, 03:01:04,VALID,999.619,VALID,0,VALID,89.4191,VALID,0,VALID,23.8786,VALID,125,VALID,0.942969,
2009-04-30, 03:02:04,VALID,999.657,VALID,0,VALID,89.32,VALID,0,VALID,23.8982,VALID,123,VALID,0.629297,
2009-04-30, 03:03:04,VALID,999.656,VALID,0,VALID,89.3047,VALID,0,VALID,23.8982,VALID,123,VALID,0.509766,
2009-04-30, 03:04:04,VALID,999.672,VALID,0,VALID,89.3734,VALID,0,VALID,23.8786,VALID,123,VALID,0.410156,
2009-04-30, 03:05:04,VALID,999.678,VALID,0,VALID,89.4573,VALID,0,VALID,23.8378,VALID,122,VALID,0.371094,
2009-04-30, 03:06:04,VALID,999.682,VALID,0,VALID,89.5565,VALID,0,VALID,23.8591,VALID,122,VALID,0.409375,
2009-04-30, 03:07:04,VALID,999.676,VALID,0,VALID,89.7701,VALID,0,VALID,23.8201,VALID,122,VALID,0.537109,
2009-04-30, 03:08:04,VALID,999.669,VALID,0,VALID,90.0219,VALID,0,VALID,23.8201,VALID,103,VALID,0.621484,
2009-04-30, 03:09:04,VALID,999.696,VALID,0,VALID,90.1516,VALID,0,VALID,23.7811,VALID,104,VALID,0.492969,
2009-04-30, 03:10:04,VALID,999.727,VALID,0,VALID,90.3194,VALID,0,VALID,23.7616,VALID,104,VALID,0.475391,
2009-04-30, 03:11:04,VALID,999.702,VALID,0,VALID,90.4415,VALID,0,VALID,23.7616,VALID,104,VALID,0.557422,
2009-04-30, 03:12:04,VALID,999.697,VALID,0,VALID,90.4873,VALID,0,VALID,23.742,VALID,106,VALID,0.517578,
2009-04-30, 03:13:04,VALID,999.694,VALID,0,VALID,90.5941,VALID,0,VALID,23.742,VALID,106,VALID,0.554297,
2009-04-30, 03:14:04,VALID,999.705,VALID,0,VALID,90.6323,VALID,0,VALID,23.7225,VALID,106,VALID,0.460938,
2009-04-30, 03:15:04,VALID,999.673,VALID,0,VALID,90.6399,VALID,0,VALID,23.7012,VALID,106,VALID,0.255469,
2009-04-30, 03:16:04,VALID,999.686,VALID,0,VALID,90.6399,VALID,0,VALID,23.6817,VALID,106,VALID,0.4375,
2009-04-30, 03:17:04,VALID,999.687,VALID,0,VALID,90.7467,VALID,0,VALID,23.703,VALID,106,VALID,0.492578,
2009-04-30, 03:18:04,VALID,999.685,VALID,0,VALID,90.7849,VALID,0,VALID,23.703,VALID,106,VALID,0.550391,
2009-04-30, 03:19:04,VALID,999.696,VALID,0,VALID,90.823,VALID,0,VALID,23.7225,VALID,87,VALID,0.672266,
2009-04-30, 03:20:04,VALID,999.697,VALID,0,VALID,90.7849,VALID,0,VALID,23.7225,VALID,85,VALID,0.749609,
2009-04-30, 03:21:04,VALID,999.711,VALID,0,VALID,90.6704,VALID,0,VALID,23.742,VALID,79,VALID,0.782812,
2009-04-30, 03:22:04,VALID,999.747,VALID,0,VALID,90.4949,VALID,0,VALID,23.7616,VALID,70,VALID,0.987109,
2009-04-30, 03:23:04,VALID,999.739,VALID,0,VALID,90.5636,VALID,0,VALID,23.7811,VALID,70,VALID,0.675391,
2009-04-30, 03:24:04,VALID,999.749,VALID,0,VALID,90.3423,VALID,0,VALID,23.8006,VALID,70,VALID,0.730469,
2009-04-30, 03:25:04,VALID,999.762,VALID,0,VALID,90.06,VALID,0,VALID,23.8006,VALID,69,VALID,0.761719,
2009-04-30, 03:26:04,VALID,999.763,VALID,0,VALID,89.7549,VALID,0,VALID,23.8201,VALID,63,VALID,0.790625,
2009-04-30, 03:27:04,VALID,999.739,VALID,0,VALID,89.9761,VALID,0,VALID,23.8396,VALID,57,VALID,0.846875,
2009-04-30, 03:28:04,VALID,999.73,VALID,0,VALID,89.8846,VALID,0,VALID,23.8396,VALID,41,VALID,0.621094,
2009-04-30, 03:29:04,VALID,999.723,VALID,0,VALID,89.648,VALID,0,VALID,23.8006,VALID,48,VALID,0.610937,
2009-04-30, 03:30:04,VALID,999.718,VALID,0,VALID,89.3047,VALID,0,VALID,23.7811,VALID,61,VALID,0.558594,
2009-04-30, 03:31:04,VALID,999.709,VALID,0,VALID,89.5565,VALID,0,VALID,23.7616,VALID,61,VALID,0.426562,
2009-04-30, 03:32:04,VALID,999.682,VALID,0,VALID,89.7472,VALID,0,VALID,23.7225,VALID,49,VALID,0.836719,
2009-04-30, 03:33:04,VALID,999.673,VALID,0,VALID,89.442,VALID,0,VALID,23.703,VALID,50,VALID,1.11953,
2009-04-30, 03:34:04,VALID,999.661,VALID,0,VALID,89.938,VALID,0,VALID,23.6835,VALID,50,VALID,1.13555,
2009-04-30, 03:35:04,VALID,999.68,VALID,0,VALID,90.1134,VALID,0,VALID,23.664,VALID,48,VALID,1.13359,
2009-04-30, 03:36:04,VALID,999.681,VALID,0,VALID,90.266,VALID,0,VALID,23.6232,VALID,61,VALID,0.921484,
2009-04-30, 03:37:04,VALID,999.674,VALID,0,VALID,90.5026,VALID,0,VALID,23.625,VALID,62,VALID,0.708984,
2009-04-30, 03:38:04,VALID,999.685,VALID,0,VALID,90.6857,VALID,0,VALID,23.6054,VALID,72,VALID,0.587109,
2009-04-30, 03:39:04,VALID,999.716,VALID,0,VALID,90.9985,VALID,0,VALID,23.5469,VALID,72,VALID,0.662891,
2009-04-30, 03:40:04,VALID,999.719,VALID,0,VALID,91.235,VALID,0,VALID,23.5274,VALID,72,VALID,0.537109,
2009-04-30, 03:41:04,VALID,999.719,VALID,0,VALID,91.3342,VALID,0,VALID,23.4884,VALID,72,VALID,0.491406,
2009-04-30, 03:42:04,VALID,999.715,VALID,0,VALID,91.5554,VALID,0,VALID,23.4688,VALID,64,VALID,0.576953,
2009-04-30, 03:43:04,VALID,999.689,VALID,0,VALID,91.7004,VALID,0,VALID,23.4493,VALID,50,VALID,0.410156,
2009-04-30, 03:44:04,VALID,999.68,VALID,0,VALID,92.0285,VALID,0,VALID,23.4085,VALID,50,VALID,0.395703,
2009-04-30, 03:45:04,VALID,999.672,VALID,0,VALID,92.3489,VALID,0,VALID,23.4103,VALID,50,VALID,0.453906,